THOR BURNER 2 R/B, 2877

Orbit data source: Space-Track

THOR BURNER 2 R/B, 2877 is space debris in LEO originally from a launch on Thu, 29 Jun 1967 UTC launched from the Air Force Western Test Range (AFWTR). Debris objects in space refer to the collection of defunct objects orbiting the Earth. Examples of debris include non-operational satellites, rocket bodies, and fragments generated from explosions, collisions, or faulty payload assembly.

Loading next visibility...
Identifier
2877, 1967-065C
Orbit
LEO
Country
Flag of USUS
Related business
Manufacturer
BOKT/THKE
Mission
Spacecraft
Bus & Motor
STAR 13, STAR 13
Mass
58 kg wet, 25 kg dry
Launch date (UTC)
1967-06-29 (58 years ago)
Launch vehicle
Unknown
Launch site
Air Force Western Test Range (AFWTR)
Object type
Payload
Rocket body
Debris
Shape & HBR
Sphere + 1 Nozzle, 0.3 m
Radar Cross Section
0.385 m², Medium (>0.1 m² and < 1m²)

Expand to show TLE details & history
Last TLE update: 18 hours ago

TLE from 18 hours ago
0 THOR BURNER 2 R/B
1 02877U 67065C   25261.07162090  .00000002  00000-0  11616-4 0  9990
2 02877  89.9993 313.7689 0065694 353.9051   6.0982  8.36608304778225
Epoch: 2025-09-18T01:43Z
TLE epoch observation values (Epoch: 2025-09-18T01:43:08.045Z)
Latitude
Longitude
-69.2531°
Altitude
3,806.972 km
Speed
6.277 km/s
True Right ascension
20h 55m 04s
True Declination
0° 00' 00"
Sunlit
Object was in daylight at epoch
Visualization orbit readout
Latitude
Unknown
Longitude
Unknown
Altitude
Unknown
Speed
Unknown
Apparent Right ascension
Unknown
Apparent Declination
Unknown
Sunlit
N/A
Visualization observer readout
Local Sidereal Time
12:58:25
Azimuth
Unknown
Elevation
Unknown
Doppler factor
Unknown
Orbital elements
Apogee altitude
3,936.961 km
Perigee altitude
3,802.317 km
Semi-major axis
10,247.776 km
Eccentricity
0.00657
Inclination
89.9993°
RAAN
313.7689°
Arg. of periapsis
353.9051°
True anomaly
6.17883°
Mean anomaly
6.0982°
Eccentric anomaly
6.13845°
Mean motion
2.09218 °/min
Orbital period
172.07 mins
BSTAR
0.000011616
Loading maneuver chart data...
Computing Atmospheric mass density...
Loading historical data...
Loading historical data...
Loading historical data...
Loading historical data...
Loading historical data...
Loading historical data...
Loading historical data...
Other satellites on launch #65 in the year 1967 (1967-06-29 UTC)

Documentation

Showing up to 5 results
|